Albuquerque, NM

1:03 AM MST on November 21, 2019 (GMT -0700)
Albuquerque International Sunport

Weather History for KABQ - October, 2019

Change the Weather History Date:

Monday, October 21, 2019

  Actual Average Record
Temperature  
Mean Temperature 49 °F 56 °F  
Max Temperature 61 °F 67 °F 81 °F (1954)
Min Temperature 36 °F 44 °F 20 °F (1910)
Degree Days  
Heating Degree Days 16 9  
Month to date heating degree days 116 125  
Since 1 July heating degree days 116 151  
Cooling Degree Days 0 0  
Month to date cooling degree days 10 7  
Year to date cooling degree days 1529 1319  
Moisture  
Dew Point 8 °F    
Average Humidity 20    
Maximum Humidity 29    
Minimum Humidity 11    
Precipitation  
Precipitation 0.00 in 0.03 in 0.60 in (1978)
Month to date precipitation 0.58 0.77  
Year to date precipitation 6.48 8.13  
Snow  
Snow 0.00 in - - ()
Month to date snowfall 0.0  
Since 1 July snowfall 0.0  
Since 1 September snowfall 0.0  
Snow Depth 0.00 in    
Sea Level Pressure  
Sea Level Pressure 30.05 in    
Wind  
Wind Speed 10 mph (NNW)    
Max Wind Speed 30 mph    
Max Gust Speed 40 mph    
Visibility 10 miles    
Events      
T = Trace of Precipitation, MM = Missing Value Source: NWS Daily Summary

Daily Weather History Graph

Daily Weather History Graph

Search for Another Location

Airport or City:

Astronomy

Oct. 21, 2019 Rise Set
Actual Time 7:17 AM MDT 6:24 PM MDT
Civil Twilight 6:51 AM MDT 6:49 PM MDT
Nautical Twilight 6:22 AM MDT 7:19 PM MDT
Astronomical Twilight 5:52 AM MDT 7:48 PM MDT
Moon No Moon Rise 2:29 PM MDT
Length of Visible Light 11h 58m
Length of Day
11h 06m
Waning Gibbous, 47% of the Moon is Illuminated
Oct 21
Waning Gibbous
Oct 27
New
Nov 4
First Quarter
Nov 12
Full
Nov 19
Last Quarter

Hourly Weather History & Observations

Time (MDT) Temp. Windchill Dew Point Humidity Pressure Visibility Wind Dir Wind Speed Gust Speed Precip Events Conditions
12:52 AM 44.1 °F 40.8 °F 3.0 °F 18% 29.96 in 10.0 mi North 5.8 mph - N/A   Clear
1:52 AM 43.0 °F 41.3 °F 3.9 °F 20% 29.96 in 10.0 mi NNW 3.5 mph - N/A   Clear
2:52 AM 43.0 °F 38.2 °F 6.1 °F 22% 29.98 in 10.0 mi North 8.1 mph - N/A   Clear
3:52 AM 37.0 °F 34.5 °F 6.1 °F 28% 29.98 in 10.0 mi SE 3.5 mph - N/A   Clear
4:52 AM 39.0 °F 36.8 °F 6.1 °F 26% 30.00 in 10.0 mi NW 3.5 mph - N/A   Clear
5:52 AM 36.0 °F 33.3 °F 6.1 °F 29% 30.03 in 10.0 mi SSW 3.5 mph - N/A   Clear
6:52 AM 37.9 °F 34.4 °F 6.1 °F 27% 30.05 in 10.0 mi North 4.6 mph - N/A   Clear
7:52 AM 37.9 °F 33.5 °F 8.1 °F 29% 30.08 in 10.0 mi NW 5.8 mph - N/A   Clear
8:52 AM 41.0 °F 39.0 °F 8.1 °F 26% 30.11 in 10.0 mi West 3.5 mph - N/A   Clear
9:52 AM 45.0 °F 42.6 °F 7.0 °F 21% 30.09 in 10.0 mi SSW 4.6 mph - N/A   Partly Cloudy
10:52 AM 48.9 °F - 5.0 °F 17% 30.07 in 10.0 mi SSE 4.6 mph - N/A   Clear
11:52 AM 52.0 °F - 7.0 °F 16% 30.08 in 10.0 mi Variable 4.6 mph - N/A   Clear
12:52 PM 57.0 °F - 10.0 °F 15% 30.01 in 10.0 mi NNW 5.8 mph 19.6 mph N/A   Clear
1:52 PM 60.1 °F - 10.9 °F 14% 29.98 in 10.0 mi NNW 19.6 mph 31.1 mph N/A   Clear
2:52 PM 61.0 °F - 8.1 °F 12% 29.97 in 10.0 mi NNW 26.5 mph 33.4 mph N/A   Partly Cloudy
3:52 PM 61.0 °F - 7.0 °F 12% 30.01 in 10.0 mi NW 24.2 mph 36.8 mph N/A   Partly Cloudy
4:52 PM 60.1 °F - 7.0 °F 12% 30.01 in 10.0 mi NW 21.9 mph 40.3 mph N/A   Partly Cloudy
5:52 PM 59.0 °F - 9.0 °F 14% 30.04 in 10.0 mi NNW 15.0 mph - N/A   Scattered Clouds
6:52 PM 57.0 °F - 10.0 °F 15% 30.08 in 10.0 mi NW 12.7 mph - N/A   Scattered Clouds
7:52 PM 54.0 °F - 10.9 °F 18% 30.13 in 10.0 mi North 10.4 mph - N/A   Partly Cloudy
8:52 PM 53.1 °F - 10.0 °F 18% 30.14 in 10.0 mi North 10.4 mph - N/A   Partly Cloudy
9:52 PM 52.0 °F - 12.0 °F 20% 30.15 in 10.0 mi North 9.2 mph - N/A   Clear
10:52 PM 51.1 °F - 12.0 °F 21% 30.15 in 10.0 mi North 10.4 mph - N/A   Clear
11:52 PM 48.9 °F - 12.9 °F 24% 30.16 in 10.0 mi NE 4.6 mph - N/A   Clear